Tracking 31027 objects as of 19-Jul-2025
HD Live streaming from Space Station
objects crossing your sky now

STARLINK-31005

Track STARLINK-31005 now!
10-day predictions
STARLINK-31005 is classified as:


NORAD ID: 58486
Int'l Code: 2023-186P
Perigee: 565.1 km
Apogee: 567.3 km
Inclination: 43.0 °
Period: 95.8 minutes
Semi major axis: 6937 km
RCS: Unknown
Launch date: December 3, 2023
Source: United States (US)
Launch site: AIR FORCE EASTERN TEST RANGE (AFETR)
Your satellite tracking list
FENGYUN 1C DEB
Track 1 satellite(s)




NASA's NSSDC Master Catalog

Two Line Element Set (TLE):
1 58486U 23186P   25199.43710801  .00000103  00000-0  22708-4 0  9998
2 58486  43.0025 260.3327 0001552 275.8793  84.1872 15.02537796 90604
Source of the keplerian elements: AFSPC